Location: Chuathbaluk
(61.5726°N, 159.2454°W)
Time: 23:46:10
(UTC+00:00)

Transit 2A - Pass Details

Date: 29 November 2020
Orbit: 598 x 960 km, 66.7° (Epoch: 20 January)

Event Time Altitude Azimuth Distance (km) Brightness Sun altitude
Rises 03:45:28 0° 186° (S) 3,617 9.8 -14.3°
Reaches altitude 10° 03:48:22 10° 176° (S) 2,650 9.0 -14.6°
Maximum altitude 03:53:35 29° 118° (ESE) 1,593 7.3 -15.2°
Enters shadow 03:55:50 23° 83° (E) 1,810 7.3 -15.4°
Drops below altitude 10° 03:58:31 10° 61° (ENE) 2,504 - -15.7°
Sets 04:01:10 0° 50° (NE) 3,386 - -16.0°
